NOAA 16 DEB, 41213

Orbit data source: Space-Track

NOAA 16 DEB, 41213 is space debris in SSO originally from a launch on Thu, 21 Sep 2000 UTC launched from the Air Force Western Test Range (AFWTR). Debris objects in space refer to the collection of defunct objects orbiting the Earth. Examples of debris include non-operational satellites, rocket bodies, and fragments generated from explosions, collisions, or faulty payload assembly.

Loading next visibility...
Identifier
41213, 2000-055DS
Orbit
SSO
Country
Flag of USUS
Related business
Manufacturer
Unknown
Mission
Spacecraft
Bus & Motor
Unknown
Mass
Unknown
Launch date (UTC)
2000-09-21 (26 years ago)
Launch vehicle
Unknown
Launch site
Air Force Western Test Range (AFWTR)
Object type
Payload
Rocket body
Debris
Shape & HBR
Unknown shape, 0.1 m
Radar Cross Section
Small (<0.1 m²)

Expand to show TLE details & history
Last TLE update: 8 hours ago

TLE from 8 hours ago
0 NOAA 16 DEB
1 41213U 00055DS  26120.11368894  .01647333  00000-0  17336-1 0  9990
2 41213  98.9452   1.7620 0008595 165.8046 194.3450 15.61491311542057
Epoch: 2026-04-30T02:43Z
TLE epoch observation values (Epoch: 2026-04-30T02:43:42.724Z)
Latitude
-0°
Longitude
102.76903°
Altitude
392.077 km
Speed
7.672 km/s
True Right ascension
00h 07m 02s
True Declination
0° 00' 00"
Sunlit
Object was in daylight at epoch
Visualization orbit readout
Latitude
Unknown
Longitude
Unknown
Altitude
Unknown
Speed
Unknown
Apparent Right ascension
Unknown
Apparent Declination
Unknown
Sunlit
N/A
Visualization observer readout
Local Sidereal Time
17:47:48
Azimuth
Unknown
Elevation
Unknown
Doppler factor
Unknown
Orbital elements
Apogee altitude
386.142 km
Perigee altitude
374.524 km
Semi-major axis
6,758.47 km
Eccentricity
0.00086
Inclination
98.9452°
RAAN
1.762°
Arg. of periapsis
165.8046°
True anomaly
194.32062°
Mean anomaly
194.345°
Eccentric anomaly
194.33281°
Mean motion
3.90634 °/min
Orbital period
92.16 mins
BSTAR
0.017336
Loading maneuver chart data...
Computing Atmospheric mass density...
Loading historical data...
Loading historical data...
Loading historical data...
Loading historical data...
Loading historical data...
Loading historical data...
Loading historical data...

Documentation

Showing up to 5 results
|